Location: Elbart
(49.6135°N, 11.9134°E)
Time: 11:11:59
(UTC+00:00)

Cosmos 1812 Rocket - Pass Details

Date: 09 April 2020
Orbit: 607 x 631 km, 82.5° (Epoch: 25 May)

Event Time Altitude Azimuth Distance (km) Brightness Sun altitude
Exits shadow 19:25:18 21° 143° (SE) 1,390 4.8 -14.1°
Maximum altitude 19:27:35 35° 91° (E) 986 4.1 -14.4°
Drops below altitude 10° 19:31:33 10° 26° (NNE) 1,970 6.2 -14.9°
Sets 19:33:54 0° 17° (NNE) 2,878 7.2 -15.2°
